Theta_e
301 300 299 299 299 301 301 300 300 297 296 298 300 303 305 304 304 304 300 299 303 307 305 303 304 304 302 302 303 303 303 304 304 304 305 306 306 307 308 308 308 309 309 309 308 308 307 307 308 309 309 309 310 311 310 309 309 310 311 310 308 308 307 308 309 308 308 309 308 308 309 309 310 310 309 311 311 311 312 311 312 314 316 316 315 317 324
301 300 299 299 300 300 300 300 299 297 295 297 300 304 303 302 303 303 301 300 303 304 303 302 303 303 304 304 304 304 304 304 304 304 305 305 306 307 307 308 308 308 307 308 308 307 307 307 308 309 309 309 309 310 310 310 311 311 311 311 309 307 308 309 310 310 309 310 311 310 311 311 312 312 312 312 312 312 312 311 311 313 316 318 316 318 324
301 300 299 299 300 301 300 300 299 296 295 296 300 303 303 303 304 303 302 302 302 302 301 302 303 303 304 304 305 305 305 304 303 303 304 305 305 306 306 306 307 307 307 307 307 306 306 307 308 308 309 309 308 309 309 310 311 310 310 311 310 308 309 310 311 312 310 311 312 313 314 313 313 314 313 313 313 313 313 313 314 316 318 319 321 324 328
300 300 299 299 300 301 301 301 299 296 295 296 300 303 303 303 303 302 302 302 302 301 300 301 302 302 302 303 304 305 305 305 304 303 305 305 304 304 305 306 307 307 307 307 305 305 306 306 307 308 309 309 308 308 309 310 311 310 310 311 310 310 311 311 311 311 311 311 312 313 314 314 314 314 315 314 314 314 314 315 317 318 318 319 321 325 329
301 300 299 299 300 300 301 300 298 296 295 296 300 303 303 302 302 301 301 302 302 302 301 301 301 301 302 303 304 305 305 305 304 303 305 305 304 305 306 306 308 308 308 307 305 305 306 307 308 308 309 309 308 308 309 311 311 311 311 311 311 312 312 312 312 312 311 311 311 311 313 314 314 315 316 315 315 316 316 317 319 318 318 321 323 323 327
300 301 300 299 300 301 300 300 299 296 295 298 302 304 303 301 302 301 300 301 302 302 301 300 301 302 302 303 304 305 305 305 304 303 304 304 304 305 307 307 307 307 308 307 306 305 306 308 308 308 308 309 309 309 310 311 311 311 311 310 312 313 312 312 314 314 313 312 311 311 312 313 314 315 316 316 316 318 318 319 319 318 319 323 324 324 328
300 301 300 299 300 301 300 300 299 296 296 299 302 304 302 301 302 301 301 302 301 301 301 300 301 302 302 303 303 304 304 304 304 302 302 303 305 306 307 307 307 307 307 308 307 306 307 308 308 308 308 308 309 310 312 312 312 311 312 312 313 313 312 313 314 314 314 313 312 312 313 313 315 315 316 317 317 317 318 318 318 318 319 320 319 323 329
301 301 301 299 299 301 300 300 299 296 297 300 302 302 301 301 301 300 301 302 301 301 301 301 302 303 302 303 303 302 303 303 302 302 302 303 305 306 306 306 306 306 307 308 309 307 307 307 307 307 307 308 309 311 312 313 312 312 311 312 313 312 312 314 315 315 315 314 313 313 314 315 316 316 317 318 317 317 318 318 319 320 321 321 321 326 332
302 301 300 299 299 301 301 300 298 296 298 301 301 300 300 299 300 300 301 302 302 302 302 302 303 303 302 302 302 302 303 302 301 302 303 304 305 305 305 305 305 306 308 309 309 308 306 306 306 305 306 308 309 310 311 311 312 312 312 312 313 312 312 314 314 314 315 314 314 315 315 316 316 317 319 320 319 320 320 319 320 321 324 325 327 331 334
304 302 300 299 300 301 301 300 298 297 298 300 300 300 299 299 300 299 300 302 302 302 302 303 303 303 301 301 302 301 302 302 301 302 304 304 305 304 304 305 305 306 308 309 307 306 305 305 306 305 306 307 308 308 309 309 310 311 312 313 312 312 313 313 313 315 314 313 315 316 316 318 319 319 321 320 320 321 321 321 321 321 324 327 329 331 332
306 303 301 299 299 301 301 300 299 297 298 299 299 299 299 299 299 299 300 303 303 302 303 303 303 302 301 301 301 301 302 302 302 302 303 304 304 304 304 305 305 306 308 307 306 305 305 305 306 306 307 309 309 309 310 310 311 313 313 313 313 313 313 313 313 315 315 314 315 316 317 319 319 320 320 321 321 322 322 323 322 322 326 328 329 331 331
307 305 302 299 299 300 301 300 299 297 297 298 299 299 298 298 299 300 300 302 303 302 303 302 302 302 301 301 301 302 302 303 302 302 302 303 304 305 305 306 306 307 307 305 305 306 308 309 309 309 310 311 311 311 312 311 312 313 313 313 313 313 314 313 313 314 314 314 314 316 319 319 318 319 319 320 321 322 322 322 324 326 328 329 329 330 331
308 306 303 300 299 300 300 300 299 297 297 298 298 298 297 297 299 300 299 301 303 302 302 303 303 302 302 301 302 302 303 303 303 303 304 304 305 306 306 306 306 307 305 304 305 308 309 311 312 313 313 313 312 313 313 312 312 313 313 312 313 314 314 314 314 314 314 313 314 318 320 320 318 318 318 319 320 322 322 322 324 327 328 328 329 330 330
308 307 305 301 299 300 300 300 298 297 297 297 298 298 297 297 299 299 300 301 302 301 302 303 303 303 302 302 302 303 303 304 304 305 305 306 306 307 306 306 306 306 305 305 307 310 310 311 313 314 314 313 314 314 313 313 314 314 315 313 312 314 315 315 315 314 315 315 317 319 321 321 320 319 319 318 318 321 322 322 324 326 326 327 329 329 329
308 307 305 302 300 299 300 300 298 297 297 297 297 298 298 297 298 299 300 300 300 301 303 302 302 302 302 302 302 303 304 304 304 304 306 307 307 307 306 305 305 305 305 307 310 311 311 311 313 314 313 313 314 314 314 313 314 315 316 314 313 313 315 316 316 315 315 316 317 318 321 322 321 321 319 317 318 320 321 321 324 325 325 326 328 329 328
307 307 306 303 301 299 300 300 298 297 296 297 297 298 298 298 298 298 300 300 300 302 302 301 301 301 301 302 303 303 303 303 303 304 306 308 308 306 305 305 306 306 307 309 311 311 311 312 313 313 314 313 313 314 314 314 314 315 316 316 315 315 315 316 317 316 316 318 318 320 321 321 321 321 320 320 321 321 321 322 324 325 326 326 328 328 329
307 307 306 304 301 300 300 300 299 297 296 296 297 298 298 298 298 298 300 300 300 301 301 301 301 301 302 302 303 302 302 302 302 303 304 306 306 305 305 305 306 306 307 310 310 310 311 311 311 312 313 313 312 313 313 313 315 316 315 316 317 317 316 316 317 317 317 318 319 320 320 319 320 321 321 321 321 320 322 325 325 324 325 326 327 328 328
307 307 306 304 302 300 300 300 298 297 296 296 297 298 298 298 298 299 300 299 299 300 301 301 301 301 301 301 301 301 301 301 302 302 302 304 305 304 304 304 305 307 308 309 310 310 311 311 311 311 312 312 312 312 312 313 315 314 314 316 316 316 316 315 316 317 317 319 320 319 318 317 319 321 322 321 321 321 324 327 324 323 325 326 326 328 328
307 306 306 305 302 300 300 300 298 297 296 296 297 299 299 298 298 299 299 299 299 300 301 301 301 301 301 301 301 301 301 301 301 301 303 306 306 304 304 304 305 306 307 308 309 309 310 310 310 310 311 311 311 311 312 313 314 313 314 316 317 317 317 316 316 317 318 318 318 319 318 317 319 321 321 321 323 324 325 324 322 323 324 325 326 327 328
307 307 306 304 302 300 300 300 298 297 296 296 297 299 299 298 298 298 299 299 299 299 300 301 301 301 301 301 301 301 301 302 302 302 304 305 304 304 307 308 306 306 307 308 309 309 309 309 309 309 309 310 310 311 312 313 313 313 313 315 316 317 317 316 316 317 318 318 320 321 321 318 319 321 322 322 323 324 323 322 322 323 323 324 326 327 327
307 307 306 305 303 300 300 300 298 297 296 296 297 299 299 299 298 298 299 299 298 298 300 302 301 301 301 301 301 301 301 301 302 302 303 304 303 304 307 307 306 305 306 307 308 309 307 307 307 308 309 310 310 311 313 314 314 313 313 315 316 317 317 317 317 317 318 319 320 320 320 319 320 321 322 321 322 322 321 321 322 323 322 323 325 326 326
307 307 306 305 303 300 300 300 298 296 296 296 297 299 300 299 299 298 298 298 298 298 300 301 300 300 301 301 301 301 301 301 301 301 302 302 303 303 305 305 305 305 304 305 307 307 306 306 306 306 308 309 310 311 313 314 314 313 312 315 317 317 317 317 318 317 318 319 319 318 319 320 320 320 320 320 320 320 320 321 321 322 322 323 324 325 325
308 307 306 304 302 300 300 300 298 296 296 297 298 299 299 299 299 298 298 298 298 299 300 300 300 301 302 301 301 301 300 300 301 301 301 301 302 304 305 305 305 305 304 304 305 304 304 305 304 306 308 309 309 311 313 314 313 311 312 314 316 316 315 316 318 318 317 318 318 317 318 319 318 317 318 319 319 320 320 321 321 321 321 322 323 324 324
308 307 306 304 302 301 300 300 298 296 296 297 298 299 299 299 299 298 298 299 299 299 301 301 301 302 302 301 301 301 301 301 301 301 301 301 302 304 306 305 304 304 305 305 303 303 303 303 304 306 308 309 309 311 312 313 312 311 312 314 315 314 314 316 317 317 317 317 317 316 317 318 316 316 317 317 317 319 320 321 320 321 321 322 322 323 322
308 307 305 304 302 301 300 300 298 296 296 297 298 299 299 299 299 298 299 299 299 299 300 302 302 302 301 301 301 301 301 301 301 301 301 301 302 303 304 305 303 303 304 304 303 303 303 303 305 306 307 309 311 311 311 312 312 311 312 314 315 314 314 315 316 316 317 317 316 316 317 316 315 315 316 316 316 318 319 319 320 320 322 322 321 321 321
308 306 305 304 302 301 300 299 298 296 296 296 298 299 299 299 299 299 298 299 299 299 300 301 303 303 302 302 303 303 301 300 300 301 301 302 302 302 303 303 303 303 303 303 303 303 303 304 306 307 309 311 311 311 312 313 312 311 312 313 315 315 314 315 316 316 316 315 314 314 315 314 314 314 315 315 316 316 317 318 319 319 321 321 321 320 319
307 306 305 304 302 301 300 299 297 296 296 297 298 299 299 299 299 299 299 299 300 301 301 301 302 303 303 303 302 301 300 301 301 301 301 302 302 302 302 302 302 302 303 303 303 303 304 306 308 309 310 310 311 312 314 314 313 313 313 313 314 314 314 315 316 315 314 314 314 314 315 315 314 314 314 314 314 315 316 318 318 319 320 321 320 319 319
307 306 305 304 302 300 300 299 297 296 297 298 299 299 299 299 299 300 299 299 300 301 300 300 301 302 303 303 302 301 301 302 302 302 302 302 302 302 303 303 303 303 303 304 304 305 306 308 309 309 309 309 310 313 316 315 313 313 313 312 313 313 314 314 315 315 314 314 314 314 315 315 315 314 314 314 313 314 315 317 317 318 319 320 319 319 318
306 305 306 304 301 300 300 298 296 297 298 299 299 299 299 299 299 299 299 299 299 300 299 299 301 303 304 304 303 303 303 303 303 303 303 303 303 303 303 303 304 304 304 303 303 305 306 307 308 308 308 310 311 312 313 314 313 312 312 311 311 312 312 312 313 314 315 314 313 314 314 314 314 313 314 314 313 313 315 316 316 317 319 319 318 318 318
306 306 306 303 301 301 300 297 297 298 299 299 299 300 300 301 300 299 299 299 299 299 299 299 301 303 303 304 304 304 305 304 304 305 305 305 305 304 304 304 304 304 304 304 304 306 307 307 308 309 310 310 311 312 312 313 313 312 311 310 310 310 311 311 311 313 313 312 312 313 313 312 312 312 313 314 313 314 315 316 316 316 318 318 318 317 317
306 306 305 302 301 300 299 297 297 299 299 299 301 301 301 303 302 299 299 299 299 299 298 298 300 302 302 304 305 305 305 305 305 306 307 308 307 306 305 304 305 304 305 305 305 305 307 308 310 312 311 310 310 311 312 312 312 312 310 309 309 310 310 310 311 311 312 311 312 312 311 311 312 312 312 313 314 314 315 316 316 316 317 318 318 318 318
306 305 303 301 301 300 297 296 298 299 299 300 301 301 302 302 300 299 298 299 299 299 298 299 301 302 303 305 306 305 304 305 306 308 309 308 309 307 305 305 306 305 305 305 305 306 307 309 310 311 311 310 310 310 311 310 311 311 310 310 310 310 310 310 311 311 311 311 311 312 311 311 311 311 312 313 314 314 315 316 317 316 317 318 318 318 318
305 304 302 301 300 299 296 296 298 299 299 299 300 300 300 299 298 298 299 299 300 299 298 299 302 303 303 306 307 305 304 306 308 309 309 309 309 309 307 306 307 306 305 305 306 308 309 309 309 309 310 309 309 309 309 309 310 310 309 309 310 310 310 311 311 310 310 310 311 311 311 311 311 311 311 313 314 314 314 315 316 316 316 316 317 318 318
304 303 301 300 299 297 295 296 298 298 299 300 301 301 300 299 298 299 299 299 300 299 299 299 301 303 304 306 307 306 304 306 307 308 308 309 309 309 308 308 308 307 307 307 308 309 309 310 309 309 308 308 308 308 308 308 308 308 307 307 308 308 309 310 310 309 309 310 310 310 310 310 310 310 311 311 312 312 313 313 314 314 314 314 315 316 317
303 302 301 299 297 296 296 297 298 299 300 301 302 302 300 300 299 299 300 300 300 300 300 300 301 303 304 306 306 306 305 306 307 307 307 308 309 308 308 308 308 308 308 307 308 309 309 309 309 309 308 308 308 308 308 307 307 307 307 306 306 307 308 309 309 309 309 309 309 308 308 308 308 310 310 310 310 310 310 311 312 313 313 313 313 314 315
302 301 299 297 296 296 298 299 299 300 302 302 302 301 300 300 300 300 300 300 300 301 301 301 301 303 305 305 304 304 305 306 307 307 307 308 308 307 307 307 307 307 307 307 308 309 309 309 309 309 309 309 309 308 308 308 307 308 307 307 307 307 307 307 308 308 308 307 307 307 307 306 307 309 310 310 309 309 309 309 311 312 313 313 312 312 313
301 300 298 297 297 298 299 300 300 301 302 301 301 300 299 300 300 300 300 300 300 300 301 301 302 304 304 304 304 304 305 306 307 307 307 308 307 306 306 307 307 306 306 307 308 308 309 309 310 309 309 309 309 309 308 308 308 308 308 307 307 307 306 306 307 307 307 307 306 306 305 305 307 308 309 309 309 308 308 308 309 311 311 312 312 312 312
300 298 298 298 299 298 299 301 301 300 300 300 300 300 300 300 300 300 299 299 300 300 300 301 303 304 304 304 304 305 304 305 306 307 307 307 307 307 307 307 306 306 306 306 307 307 308 309 309 309 309 309 309 309 308 308 308 308 308 307 307 307 306 306 306 306 307 306 306 305 304 305 306 308 308 308 308 308 308 308 309 310 310 311 311 312 312
298 298 299 299 299 299 300 301 300 300 300 300 301 301 301 300 300 301 300 299 299 300 301 302 304 305 304 305 306 305 304 304 306 307 307 307 307 307 307 307 306 306 306 306 307 308 309 309 309 309 310 309 309 309 308 308 308 308 308 308 308 308 307 306 305 306 307 306 305 305 305 305 305 306 307 307 307 307 307 308 308 309 310 310 310 311 312
298 299 299 299 299 300 301 300 300 300 301 301 301 301 300 300 301 301 301 301 302 302 302 303 304 304 304 304 305 305 305 305 306 306 307 307 306 306 307 307 306 305 306 306 306 308 309 309 309 309 309 309 309 309 308 308 308 308 308 308 309 309 308 307 306 307 307 307 306 306 305 305 305 305 306 307 307 306 306 306 308 308 309 309 310 310 310
299 299 298 299 299 300 300 299 299 300 300 299 299 300 300 301 300 300 301 303 304 303 303 304 304 305 304 304 304 305 305 305 305 305 306 307 306 306 307 307 306 305 306 306 306 307 309 309 309 309 309 308 308 308 308 308 308 308 308 309 309 309 309 308 307 306 306 306 306 305 305 305 306 306 306 307 307 307 306 307 308 309 309 309 309 309 309
299 299 299 299 299 299 298 299 299 299 299 299 299 300 300 300 300 300 301 303 304 303 303 304 305 305 305 305 304 305 305 305 305 305 306 306 305 305 306 307 306 306 307 306 306 308 309 309 309 309 308 308 308 308 307 308 308 308 308 309 309 309 309 308 307 305 305 305 306 306 305 305 305 305 305 306 307 307 307 307 308 309 309 309 309 308 308
299 299 299 299 298 298 299 299 299 299 299 299 299 300 300 300 300 301 302 302 302 303 304 305 305 305 305 304 304 305 305 305 304 305 305 305 304 305 306 306 306 306 306 306 307 309 309 308 309 309 308 307 308 308 307 307 308 308 308 309 309 308 308 309 307 306 306 306 306 307 306 306 305 305 305 306 306 306 307 307 308 308 308 308 308 307 307
299 299 299 299 298 298 299 300 300 300 301 300 300 300 301 301 301 302 302 302 303 303 304 304 304 304 304 304 303 304 304 304 304 304 304 304 304 305 306 307 306 306 306 307 308 308 308 307 308 308 307 307 307 307 307 308 308 307 307 308 309 309 308 308 308 307 306 305 306 306 306 306 305 306 306 306 306 306 306 307 307 306 306 306 306 306 306
299 299 299 299 299 298 299 300 300 300 302 302 300 301 302 302 302 303 303 303 303 303 302 303 303 303 303 303 303 303 303 303 303 304 304 304 304 305 306 305 305 305 306 307 307 307 308 308 307 306 306 306 306 306 307 307 308 307 307 307 308 309 308 308 307 306 306 305 306 306 307 306 306 307 307 307 307 306 306 306 306 305 305 305 305 306 306
299 298 299 300 300 299 299 300 300 300 302 302 301 301 302 302 303 303 302 302 302 302 302 303 303 302 303 303 302 302 303 303 303 303 303 304 305 305 305 305 305 306 306 307 306 307 307 307 306 306 306 306 306 305 306 306 307 307 307 306 307 308 308 308 307 306 306 306 306 306 307 307 307 307 308 307 306 306 306 306 306 306 306 306 306 306 306
299 297 298 300 301 299 299 300 300 301 302 302 302 302 302 302 301 302 301 301 302 302 302 302 302 302 302 302 302 302 303 302 302 303 303 304 305 305 304 305 305 306 306 307 307 307 307 307 306 306 306 306 305 305 306 306 306 306 306 306 306 307 308 309 308 306 306 306 306 306 307 307 308 308 307 307 306 305 305 306 306 306 306 306 306 306 306
298 297 298 301 302 300 299 301 301 301 300 301 301 301 300 300 300 301 301 301 301 302 302 302 302 302 302 302 302 302 302 302 302 302 303 304 304 304 305 305 305 305 305 306 307 307 307 306 306 306 305 305 305 305 306 306 306 306 306 306 306 306 308 309 308 305 305 306 306 306 307 307 308 308 307 307 306 305 305 306 306 306 306 306 306 306 306
298 298 298 299 300 299 299 300 300 300 300 300 300 300 300 300 301 302 302 301 301 302 303 302 302 301 301 301 301 301 301 301 301 301 302 303 304 304 304 305 305 305 305 305 305 305 305 305 304 305 304 304 304 305 305 305 305 305 306 306 306 306 307 308 308 306 304 305 306 306 307 307 307 307 307 307 306 306 306 306 306 306 306 306 306 305 306
297 298 298 299 299 299 298 298 299 300 301 300 300 300 300 300 301 302 302 301 301 302 302 301 301 301 301 301 300 300 301 301 300 300 301 302 303 303 304 304 304 304 304 303 303 303 303 303 303 304 304 304 304 304 304 305 305 305 306 306 306 306 307 308 308 306 305 305 306 307 307 307 307 307 307 307 307 307 306 306 307 307 307 306 306 305 305
297 298 299 299 299 299 298 299 300 301 301 301 301 301 300 301 302 302 302 301 301 301 301 301 301 301 301 300 300 300 300 300 300 300 301 302 302 303 303 303 303 303 302 302 303 302 302 302 303 303 303 303 303 303 304 305 305 305 305 305 304 304 306 308 308 306 306 306 306 306 307 307 307 307 308 307 307 306 307 307 307 307 307 306 306 305 305
298 299 299 299 298 298 298 299 300 300 301 301 301 300 301 301 302 301 301 301 301 301 301 301 300 300 300 300 300 300 300 300 300 300 301 301 302 303 302 302 302 303 302 302 302 301 301 302 303 303 303 303 303 303 304 305 305 304 304 304 303 304 306 307 307 306 306 306 306 306 307 307 307 308 308 307 306 306 307 308 307 307 307 306 306 306 305
Wind_Speed
18 21 22 22 24 26 29 33 36 38 36 29 22 15 5 3 2 4 17 22 13 7 2 3 2 3 4 6 4 4 5 7 8 8 6 6 6 6 7 8 8 7 6 5 3 5 7 7 6 9 10 9 9 1 4 3 6 5 5 4 3 2 3 4 5 4 3 3 3 3 4 4 5 7 7 7 7 6 7 8 5 7 9 8 6 4 3
18 22 22 20 21 25 27 32 35 34 31 25 18 10 3 3 1 1 13 20 10 3 4 4 4 5 6 5 4 3 3 5 8 8 6 6 7 8 8 8 8 8 8 7 5 5 5 5 6 9 9 10 11 8 5 5 3 4 3 2 1 2 3 4 4 3 4 4 3 4 4 5 5 5 7 9 10 10 9 9 7 7 10 8 4 4 4
18 21 22 18 20 24 26 31 34 31 27 21 12 6 3 3 1 1 7 15 10 4 4 4 4 7 9 7 6 6 4 3 6 9 9 6 6 9 9 10 10 9 10 10 9 7 5 5 7 8 8 11 11 11 12 9 2 5 7 6 5 4 4 4 5 4 2 2 2 1 2 3 3 4 7 10 13 14 11 7 7 7 8 9 4 2 5
18 21 21 18 20 24 25 30 34 29 25 20 10 5 4 2 2 3 3 6 7 5 4 4 4 6 9 6 6 9 9 6 6 7 6 4 7 11 10 9 10 10 11 13 10 7 6 7 9 9 10 10 10 12 15 9 1 6 11 10 6 4 5 6 7 7 6 5 5 3 1 3 4 6 10 11 14 15 11 7 6 3 6 8 3 2 3
18 20 21 19 19 23 25 29 33 29 22 16 7 4 3 2 2 5 4 2 3 4 4 6 5 5 7 6 6 10 11 9 7 5 3 5 10 11 7 6 10 12 13 11 7 7 10 9 9 10 11 11 12 14 11 4 1 5 8 6 4 4 5 6 7 8 8 7 6 5 4 5 7 8 8 9 12 14 13 11 6 5 5 5 1 2 3
18 18 20 19 19 22 25 29 33 29 20 14 7 3 3 3 1 2 3 3 3 4 5 7 7 6 7 5 6 10 11 11 9 6 6 8 10 8 6 8 14 17 15 9 6 9 12 9 7 10 11 12 13 11 5 2 3 6 6 3 3 5 5 5 7 8 7 6 6 5 5 7 8 9 9 8 9 10 10 10 7 6 6 7 6 5 3
17 17 19 19 18 20 23 27 32 28 19 15 10 4 3 3 1 2 2 2 2 4 5 7 6 6 6 5 6 10 12 12 11 7 6 9 9 7 9 14 18 19 17 10 6 6 8 8 8 11 12 13 12 8 4 1 2 6 7 4 3 4 4 5 7 9 7 4 4 5 6 7 8 9 9 8 8 9 10 9 8 9 10 10 13 11 2
17 16 17 17 16 18 20 25 29 26 19 13 10 7 5 2 1 2 2 1 1 3 4 5 5 4 5 5 6 9 11 13 13 10 8 9 10 9 13 18 20 20 18 14 10 7 6 10 13 13 13 11 8 6 4 2 4 6 6 5 4 4 3 5 6 8 5 1 2 5 6 6 8 9 8 7 8 9 8 8 8 8 9 11 13 8 2
17 16 16 16 15 16 18 22 26 25 19 12 8 7 6 3 2 3 3 1 2 2 3 4 4 3 5 6 7 9 10 12 15 13 8 8 10 12 15 18 19 18 18 17 17 16 14 15 17 16 14 11 7 6 5 7 8 6 5 5 6 5 4 4 5 5 2 1 2 4 4 6 8 8 7 8 7 6 6 7 7 6 8 10 5 3 6
17 16 16 14 13 14 15 20 24 22 17 12 7 5 5 3 2 2 3 2 1 3 3 3 3 3 5 7 8 9 10 11 12 10 5 6 9 10 13 17 16 15 18 20 19 19 20 19 17 14 11 11 10 9 10 11 9 5 5 5 4 4 5 4 4 4 3 2 2 3 4 4 4 5 9 9 8 8 8 8 9 9 9 6 5 5 6
16 16 15 13 11 12 13 17 22 20 15 12 8 6 5 4 2 3 4 2 1 3 3 3 4 4 6 9 10 9 11 11 9 6 6 7 10 12 13 15 13 10 15 18 16 16 18 17 13 9 8 9 8 8 9 11 9 7 5 4 3 4 5 4 3 4 4 4 3 3 3 3 5 7 10 10 8 9 12 11 12 12 8 6 6 7 9
14 15 15 11 9 11 12 15 19 16 11 10 8 5 5 3 3 3 3 3 3 3 3 3 4 5 8 10 11 10 12 11 9 8 10 12 15 15 13 13 11 10 15 19 17 15 14 11 8 6 5 5 5 6 7 8 7 4 3 4 4 4 4 3 3 4 4 4 3 4 5 6 7 8 11 12 8 9 12 12 10 13 14 13 13 13 15
13 14 14 11 9 9 10 13 17 13 9 8 7 4 4 3 3 3 2 4 3 3 4 4 3 5 9 10 11 12 11 11 10 10 11 13 16 15 10 9 11 13 16 19 19 15 10 7 5 3 2 2 4 5 5 5 5 4 1 2 3 3 3 3 3 3 4 4 3 4 3 4 7 7 9 13 10 9 11 8 9 17 17 14 15 16 17
12 13 13 11 9 8 9 12 14 11 8 7 6 4 3 1 2 3 2 3 4 4 4 4 4 7 10 11 12 11 10 10 9 9 9 10 12 13 11 9 12 14 14 14 13 8 5 5 4 3 3 2 1 1 3 2 2 6 5 3 2 3 3 4 3 2 4 4 4 3 1 2 7 6 7 9 8 9 10 6 8 16 16 13 14 15 16
12 12 12 10 9 8 7 10 12 10 7 6 5 3 2 0 0 2 2 3 5 4 2 4 7 10 11 11 10 10 9 8 8 9 8 7 8 10 10 11 15 16 12 9 8 6 4 5 7 7 7 7 5 4 6 5 3 6 6 4 2 2 3 4 4 3 4 4 2 3 0 3 7 8 8 9 10 10 9 4 5 14 18 16 15 14 15
12 11 11 10 8 7 7 8 10 8 6 5 4 3 1 2 2 2 3 3 4 3 3 6 8 9 9 8 8 8 7 7 8 9 7 4 7 10 10 12 14 14 11 8 6 6 6 7 8 7 6 7 7 5 6 8 6 4 5 3 3 4 4 5 5 3 4 4 3 4 4 4 7 11 13 13 11 9 6 3 5 13 17 16 15 14 14
13 12 10 9 8 6 6 8 9 7 5 4 2 2 1 2 2 2 3 2 3 4 4 6 7 6 6 5 5 5 6 6 7 6 6 8 12 13 12 12 12 11 12 10 6 6 8 8 8 7 5 5 6 5 4 7 7 7 7 4 1 1 2 3 3 4 5 4 3 4 4 4 10 14 16 14 9 5 4 2 7 13 17 14 13 14 13
13 12 11 9 7 6 7 7 7 6 4 2 1 1 2 2 2 2 2 3 4 4 2 5 7 7 6 6 6 6 6 6 5 5 7 8 9 12 14 12 8 10 13 11 7 7 9 8 7 7 5 5 6 5 5 6 6 7 9 7 5 5 4 4 5 5 5 5 4 4 3 4 12 17 18 15 7 2 4 6 6 12 15 12 12 13 12
13 13 11 9 8 6 6 6 6 5 4 2 1 1 2 2 3 2 3 3 3 3 5 8 9 8 7 7 7 5 4 4 4 5 7 6 7 14 15 6 2 8 11 10 8 8 8 8 7 4 5 7 6 4 5 5 5 6 7 6 7 7 5 5 6 5 6 5 4 3 3 3 13 18 16 13 8 3 5 8 9 11 13 12 11 12 11
12 13 12 10 8 7 6 5 4 4 4 2 1 0 2 2 4 3 3 3 4 7 10 9 8 8 8 7 7 5 4 4 3 5 7 7 10 14 10 2 3 9 9 8 9 7 7 8 7 4 4 6 5 3 4 4 3 4 6 5 6 6 5 5 6 5 4 5 6 4 2 5 15 16 10 9 8 5 5 9 10 10 12 10 9 10 10
12 13 13 11 9 7 6 5 4 4 4 3 1 1 2 2 4 4 4 5 5 6 5 4 6 11 12 10 10 9 8 7 6 6 6 7 8 9 7 6 8 8 6 6 7 6 6 6 5 3 4 4 3 5 7 5 3 5 6 4 4 6 5 4 5 5 4 5 6 4 4 7 11 11 7 7 8 7 7 9 9 9 11 10 8 8 9
11 13 13 12 9 7 6 6 5 4 4 4 2 2 2 2 3 4 6 8 8 10 12 12 14 16 16 15 15 15 14 12 11 9 7 7 6 5 5 7 7 5 4 5 5 5 6 5 4 4 5 3 4 6 7 6 5 7 8 4 3 7 6 2 2 4 3 3 5 6 6 7 9 9 9 10 11 10 10 11 10 9 9 8 7 9 10
12 13 14 12 9 8 7 6 5 4 5 5 3 2 2 3 4 5 7 9 10 14 17 16 14 13 13 12 12 14 14 14 13 12 9 7 6 5 5 5 5 3 3 4 5 6 7 5 4 4 4 4 4 6 6 6 4 5 7 4 3 8 9 4 1 2 1 1 7 10 9 10 12 11 10 12 12 12 12 11 11 9 8 8 8 10 12
12 13 14 13 10 8 7 6 5 5 5 5 4 3 3 4 5 6 7 7 6 8 8 7 5 5 4 4 5 9 11 13 13 13 12 10 6 5 3 3 4 4 4 5 5 5 5 4 3 2 3 4 4 4 4 5 5 5 6 4 5 10 12 7 5 7 3 2 9 12 9 10 14 13 12 14 15 13 11 9 8 8 8 8 10 11 12
13 14 15 13 10 8 7 7 6 5 5 5 4 4 4 4 5 5 5 4 4 5 4 3 2 2 2 5 7 8 9 10 11 11 13 15 13 9 6 4 3 6 8 7 6 5 4 3 3 2 4 4 4 5 4 3 5 6 7 7 7 9 10 7 7 9 5 3 10 12 7 7 14 14 13 14 15 14 12 9 8 7 7 9 10 11 12
14 14 15 13 10 8 7 7 6 6 5 5 5 4 5 5 5 4 4 5 5 4 4 5 2 0 4 10 9 6 5 7 9 11 14 17 17 15 12 9 7 8 8 7 5 5 3 3 3 3 3 4 5 5 4 3 3 4 7 9 7 7 8 8 7 7 5 6 13 15 8 7 15 17 16 15 14 13 13 12 11 11 10 10 12 13 13
14 14 14 12 10 9 8 7 6 5 5 4 4 4 5 6 6 5 4 4 4 2 3 5 4 7 12 13 8 5 6 8 9 11 13 14 15 15 13 11 8 7 7 5 4 3 3 2 2 2 2 3 3 3 2 2 3 3 7 10 8 6 8 9 6 6 7 8 12 13 8 7 11 15 17 17 15 13 13 12 12 13 12 10 12 14 14
14 14 14 12 11 10 8 6 6 5 4 4 3 4 5 5 5 5 4 4 3 4 4 6 8 12 13 9 6 6 7 8 9 10 10 11 13 13 12 10 7 4 4 4 3 3 3 3 3 3 2 1 1 1 1 1 2 5 8 10 9 7 8 9 7 6 7 7 9 10 7 6 9 13 16 16 13 12 12 12 12 12 11 10 11 14 15
14 15 14 13 11 10 8 7 6 6 4 2 2 3 4 3 3 3 4 5 3 4 5 6 7 8 7 6 7 8 8 7 9 10 9 9 10 11 11 9 6 4 4 3 3 4 4 3 3 2 2 2 2 3 3 3 4 7 9 12 11 10 9 9 8 6 6 7 8 9 8 9 11 13 14 12 10 11 11 11 11 12 11 11 12 14 15
15 15 14 13 12 10 8 7 7 6 4 2 3 4 3 3 2 2 4 4 2 4 4 4 4 4 5 6 8 9 9 9 8 9 8 7 7 9 9 8 5 4 4 3 3 4 3 2 2 1 0 1 3 3 4 4 4 5 9 13 12 12 11 10 8 5 4 6 8 8 9 11 11 10 11 11 10 11 10 9 10 12 11 11 12 13 14
15 15 15 13 12 10 8 8 8 6 3 2 3 3 1 1 2 3 4 3 1 4 4 4 5 5 4 3 4 7 13 13 10 6 4 4 4 5 7 6 5 5 4 3 2 3 3 3 2 2 3 1 2 4 5 5 5 6 10 12 10 9 10 9 8 6 5 7 8 6 9 11 10 10 12 13 13 12 10 9 10 13 12 11 12 13 13
15 16 15 13 11 9 7 8 8 6 4 5 5 3 1 0 2 3 3 2 2 4 3 4 4 3 3 1 2 6 12 12 8 4 1 3 2 3 5 5 4 4 3 3 2 2 2 3 2 3 4 2 1 4 6 6 7 7 9 8 6 6 6 7 8 8 7 8 9 8 9 11 11 11 13 12 11 11 11 10 11 13 13 12 13 14 14
16 16 15 13 11 8 7 8 9 7 6 7 7 4 4 6 7 5 3 1 2 3 2 3 4 2 3 3 1 4 8 8 4 2 1 2 1 1 4 3 2 3 3 2 2 1 1 2 1 3 4 2 2 5 6 7 8 8 7 6 5 5 4 5 8 9 8 8 7 7 7 8 9 11 13 12 11 12 13 13 13 13 13 12 12 12 13
16 16 14 12 10 8 7 8 7 6 6 6 4 2 3 5 6 6 5 3 1 1 1 3 4 3 4 4 0 3 7 6 3 3 3 1 1 2 2 3 2 3 4 2 2 1 0 1 0 3 4 4 4 5 6 8 10 10 9 9 9 7 6 6 8 8 8 7 6 5 5 6 7 9 12 12 12 13 14 14 14 13 11 11 11 11 10
17 16 13 11 9 8 7 6 5 4 4 4 3 2 3 3 3 6 7 4 2 2 1 1 3 3 5 4 1 5 7 6 3 3 3 1 1 2 1 2 2 1 1 1 2 1 1 1 2 1 3 4 5 5 6 8 9 10 10 10 11 10 8 8 8 6 5 6 6 7 7 8 9 9 10 11 12 13 13 13 13 13 12 11 11 11 9
18 15 13 11 9 7 5 5 5 5 3 2 3 4 3 3 4 5 6 4 3 3 2 2 2 3 4 4 3 5 7 5 3 2 2 1 1 1 2 2 1 1 1 2 1 2 2 2 2 2 3 4 5 5 5 6 8 9 9 10 10 10 9 9 8 5 4 6 8 8 9 10 10 8 8 9 10 11 13 13 13 14 14 13 12 11 9
18 16 14 11 8 5 4 5 5 6 4 4 5 6 5 4 5 4 4 3 3 3 2 3 2 2 3 3 3 4 5 5 4 3 2 2 2 1 2 2 1 1 1 1 2 4 3 1 1 4 5 4 4 4 5 5 5 6 7 7 8 9 9 10 9 7 5 6 9 10 9 10 9 8 8 9 9 11 13 13 12 12 12 12 11 10 10
18 16 12 8 5 3 3 4 6 7 7 7 6 4 3 2 2 2 2 2 2 2 2 3 3 1 1 2 3 3 4 4 4 3 3 3 2 1 1 1 1 1 1 2 3 2 1 1 3 4 4 4 4 5 6 6 4 4 5 5 6 8 8 9 10 9 7 7 8 9 9 9 9 9 8 8 9 10 10 10 10 10 10 10 10 10 11
17 12 7 5 3 1 1 4 7 9 8 6 3 2 2 2 2 2 2 2 2 2 3 3 3 2 2 3 3 2 2 4 5 4 4 3 2 2 2 1 1 2 3 2 2 2 1 2 2 2 4 4 4 6 8 7 5 5 4 4 4 6 7 8 9 9 7 7 6 6 7 8 8 8 7 7 7 8 9 9 9 10 10 10 11 11 11
12 7 4 3 2 2 5 8 10 7 5 3 3 2 1 2 2 1 1 2 2 2 2 2 1 1 2 4 4 1 1 2 4 4 4 2 1 2 3 1 1 2 3 2 2 3 1 1 1 1 2 3 5 7 8 7 6 6 5 4 4 5 6 7 8 8 7 5 4 5 7 8 8 7 6 6 7 8 8 9 9 10 10 10 11 11 11
11 7 4 4 6 8 9 9 6 3 2 2 2 1 2 2 1 1 2 3 3 2 2 2 2 1 3 3 3 1 0 1 2 2 3 2 1 2 3 2 1 2 2 2 2 3 1 2 2 1 2 5 6 7 8 8 7 7 6 5 4 4 4 6 8 9 7 5 5 5 7 9 10 9 8 7 7 7 8 9 9 9 10 9 10 11 11
14 10 8 9 11 11 8 5 3 2 2 1 1 2 2 1 1 2 3 2 1 1 2 2 2 1 1 2 3 2 0 1 1 2 2 2 1 2 3 2 1 2 1 2 1 2 1 2 1 1 3 6 7 7 7 7 8 9 8 7 4 4 4 4 6 8 8 6 5 6 6 8 9 10 10 9 8 7 8 9 9 9 10 10 9 9 10
15 13 11 10 8 5 2 2 2 2 2 1 2 2 2 2 2 3 2 1 1 1 2 2 2 1 1 2 2 2 1 0 1 2 2 2 2 2 2 2 1 1 2 1 2 1 1 2 1 2 4 5 6 7 7 7 7 8 9 9 6 4 3 3 5 7 7 5 5 5 5 5 7 8 10 10 10 9 8 9 8 8 9 9 9 10 10
15 11 6 4 2 2 2 2 2 2 3 3 3 3 3 3 3 3 2 2 3 2 2 1 2 2 0 1 1 1 1 1 2 2 1 2 2 2 2 2 2 1 1 1 1 1 2 2 1 3 4 6 7 8 8 7 6 7 9 10 7 4 2 2 3 5 6 5 5 5 5 5 5 7 8 9 10 10 9 7 7 7 7 8 8 9 9
10 4 2 2 2 1 2 2 2 2 3 3 3 4 3 2 3 3 2 2 1 2 2 1 1 2 0 1 1 1 1 1 1 1 2 2 2 2 2 2 2 2 2 2 1 2 2 2 1 3 5 6 8 8 8 7 7 7 9 10 8 6 3 2 2 4 5 5 5 5 5 5 6 7 7 6 8 9 9 7 7 7 8 8 7 7 8
3 2 3 2 2 2 2 2 3 3 3 3 4 4 3 2 1 2 2 1 1 1 1 1 1 2 1 0 0 1 1 1 2 1 1 2 2 1 1 2 2 2 2 2 0 1 1 1 1 3 4 6 8 8 7 6 6 7 8 9 9 7 4 2 2 4 4 4 4 5 5 5 5 5 5 5 7 8 9 8 7 8 9 9 9 8 8
2 2 2 1 1 2 3 3 3 2 2 2 3 3 1 1 1 0 1 1 2 1 0 0 1 2 1 1 1 1 0 1 2 1 1 2 2 1 1 2 2 1 2 2 1 1 1 2 3 4 5 7 8 8 7 6 6 7 8 9 9 8 5 2 2 4 4 3 3 5 5 4 3 3 3 4 6 8 8 7 7 8 9 10 10 9 8
3 2 1 2 2 3 3 3 3 2 2 1 2 1 0 1 2 2 1 1 1 2 2 3 2 2 1 1 2 2 1 1 1 0 1 1 2 1 1 2 1 0 1 2 2 2 2 3 4 5 6 7 7 7 7 7 7 8 9 9 9 10 7 3 2 4 4 2 2 4 4 3 2 2 3 4 5 6 6 6 7 8 8 9 10 10 8
3 2 1 1 1 2 1 1 1 3 3 2 2 2 2 3 3 2 2 2 2 2 2 1 2 2 1 0 1 2 2 1 1 1 1 1 2 1 2 2 2 0 1 1 2 2 2 3 3 5 6 6 7 6 7 7 7 8 8 9 10 10 8 4 2 2 3 3 2 3 3 3 3 2 2 3 4 4 4 5 7 7 8 9 11 10 9
2 1 1 2 2 2 2 1 2 3 4 4 3 3 3 3 3 1 2 2 2 2 2 2 2 2 1 1 2 3 1 1 1 2 2 2 1 1 2 2 2 0 1 1 1 2 2 3 4 5 5 6 7 7 7 8 8 8 8 10 10 10 8 6 3 1 1 3 3 3 3 3 4 3 2 3 3 3 3 4 6 6 7 9 10 10 9
1 1 2 2 1 2 2 2 3 3 3 4 4 3 3 3 2 2 1 1 3 4 4 3 2 2 2 3 3 2 0 0 1 3 3 1 1 2 3 2 1 0 1 1 2 2 3 3 3 4 5 5 6 7 8 9 10 9 9 10 10 9 7 5 4 3 1 1 2 2 2 3 4 4 3 4 3 2 3 3 4 5 6 7 9 10 10
2 2 1 1 1 2 2 2 2 2 2 2 2 2 2 2 2 2 1 2 4 4 3 2 2 3 3 3 1 1 1 1 2 2 2 2 2 3 3 2 1 1 1 1 2 2 2 3 3 4 5 5 6 7 9 10 10 10 10 10 10 9 7 4 3 3 3 1 2 2 1 1 2 3 3 3 2 2 3 2 1 2 3 5 6 8 8
Wind_Direction
355 352 350 352 357 358 354 352 354 354 355 355 347 335 325 353 19 3 356 354 333 299 16 54 2 36 13 330 305 304 310 317 327 335 338 334 333 325 317 318 317 315 318 315 319 340 318 282 278 302 307 324 341 339 175 296 294 257 275 282 213 210 264 277 281 255 195 145 143 167 179 184 216 238 237 237 237 227 235 252 283 302 287 267 239 179 137
351 351 352 355 359 357 353 352 353 355 358 351 335 329 346 353 320 338 6 4 349 319 36 9 347 9 350 330 333 321 311 328 331 331 331 330 332 329 324 323 318 313 315 308 307 328 311 269 281 300 305 322 334 324 309 331 307 238 292 331 210 236 264 278 292 262 195 174 181 185 187 198 228 243 231 230 234 230 234 250 260 269 282 283 238 152 118
350 350 353 356 358 356 353 352 353 355 357 352 336 313 299 312 257 200 18 24 32 67 51 358 336 350 344 344 357 353 353 348 329 319 307 304 325 325 315 316 317 312 311 311 309 300 259 255 292 302 304 313 322 323 324 331 288 252 288 291 268 277 279 276 294 296 298 320 303 293 170 196 220 242 241 237 234 228 226 244 248 246 285 299 278 111 90
348 350 353 356 357 357 353 352 355 357 358 354 336 304 308 331 20 349 5 41 53 83 70 10 348 349 346 344 359 0 356 347 337 324 305 304 327 320 308 309 317 321 324 321 313 299 270 264 281 296 306 311 317 320 320 324 282 268 281 271 260 278 274 268 279 287 306 328 322 325 293 221 215 229 239 233 228 226 224 237 253 273 315 311 312 2 15
345 349 353 355 356 356 353 352 356 360 2 358 333 297 335 3 16 2 347 353 35 63 56 18 1 346 341 333 342 351 352 354 350 333 318 327 326 320 310 315 328 334 336 327 303 301 304 288 283 301 310 313 319 319 315 311 290 294 288 259 243 268 273 279 286 284 295 308 299 288 265 246 247 259 262 240 227 227 225 234 265 343 325 292 255 247 280
344 348 352 353 355 355 352 353 357 1 9 13 353 310 9 23 71 35 342 313 0 11 2 358 344 334 338 333 335 343 351 2 356 327 313 323 328 332 324 328 336 337 337 330 299 306 318 312 308 321 323 322 325 327 323 316 335 330 320 286 263 279 288 304 304 295 295 290 279 277 266 256 262 282 294 281 257 249 242 249 286 313 273 271 297 281 259
343 346 349 352 355 355 352 353 356 3 18 24 12 5 31 31 78 66 349 308 351 348 337 333 323 333 343 341 352 347 344 354 354 334 314 318 328 339 325 327 335 334 332 328 305 307 320 314 315 324 323 319 318 320 316 304 2 342 326 319 303 289 300 329 314 300 296 282 261 266 268 270 280 292 299 295 278 268 260 261 272 261 245 258 280 278 263
343 344 346 351 355 355 353 351 355 5 20 28 27 35 36 26 26 3 324 293 338 332 330 322 313 343 357 350 360 349 340 346 343 327 305 304 320 335 328 326 328 325 327 332 326 318 305 291 293 303 308 308 308 311 314 318 335 332 326 334 330 305 329 355 321 299 300 270 239 259 267 279 288 291 293 288 274 266 265 271 274 266 257 258 260 261 17
340 342 344 349 356 355 353 351 354 7 21 24 31 47 46 54 57 347 315 319 344 323 328 321 308 350 9 355 350 343 338 342 334 319 289 276 301 324 326 326 326 322 328 338 337 330 319 300 289 286 286 282 281 285 293 310 322 325 321 326 328 315 315 324 309 309 345 55 263 268 262 265 272 289 315 322 312 306 298 290 293 301 297 293 300 16 21
337 339 340 345 355 354 350 351 355 7 24 25 24 41 35 37 64 353 308 300 352 336 331 328 327 1 6 343 334 326 322 329 331 322 294 266 288 310 322 325 325 323 332 340 336 324 315 301 289 287 279 266 265 267 272 287 295 292 300 320 338 332 314 315 321 323 350 13 326 281 257 258 283 327 348 346 326 317 314 308 313 313 305 317 4 19 354
333 336 337 341 351 350 348 351 355 6 27 30 22 26 22 14 12 338 305 291 6 352 333 350 7 3 345 332 329 320 315 324 328 309 293 295 296 301 316 322 317 314 328 334 328 312 303 289 275 274 270 261 261 263 271 283 279 260 272 309 341 332 315 326 327 313 341 10 345 294 299 9 16 1 357 345 317 321 328 315 313 322 333 356 8 4 4
327 331 335 337 343 346 345 346 352 4 26 27 16 21 26 9 343 341 324 320 351 354 334 348 349 332 328 328 326 322 319 321 316 289 277 285 290 295 311 318 307 307 322 324 321 316 310 293 262 247 255 261 257 252 268 294 303 289 273 291 314 319 311 319 293 290 326 336 309 325 8 23 2 350 357 349 330 340 336 313 321 359 12 11 6 8 9
319 324 331 334 333 337 339 341 347 359 17 19 15 17 15 2 352 4 342 314 335 356 332 318 304 314 329 330 323 318 313 307 301 286 273 275 285 296 312 314 300 304 314 319 319 320 319 308 283 260 264 254 233 240 263 290 322 0 18 239 272 296 302 311 293 290 314 314 337 8 27 22 359 347 355 352 345 352 349 337 7 20 18 12 6 7 3
306 314 323 328 327 326 327 335 344 355 8 11 12 8 3 23 17 5 348 317 324 334 317 309 323 332 332 331 325 320 316 312 309 294 275 269 280 293 306 311 304 305 312 318 324 329 324 319 326 0 29 16 257 306 355 355 18 35 59 134 228 291 306 321 319 327 335 340 31 66 179 22 16 357 346 344 326 330 341 342 10 17 18 10 1 4 2
293 302 313 319 322 318 313 328 341 350 1 5 4 355 338 90 40 345 345 326 316 314 326 340 341 334 328 327 328 326 327 336 334 313 289 262 263 283 303 314 311 311 314 320 335 348 338 342 360 15 19 10 349 340 353 359 27 52 72 115 189 269 292 314 321 340 333 321 15 73 68 16 12 350 332 313 297 315 335 321 359 16 15 3 356 3 3
281 287 300 308 315 309 300 318 332 339 353 359 359 352 317 177 164 293 305 315 312 320 3 353 331 318 313 314 323 332 337 342 339 326 314 313 313 311 319 324 319 320 329 335 346 357 358 5 10 11 18 7 342 319 333 342 351 38 74 123 196 231 243 271 299 346 353 330 357 41 43 22 354 336 326 316 314 325 322 299 21 15 4 356 356 2 2
275 275 285 296 304 299 292 308 323 332 348 357 0 0 310 183 174 279 287 303 303 294 326 343 326 310 313 321 328 339 340 335 337 335 319 319 324 325 330 334 333 340 353 356 357 5 9 14 9 7 26 10 335 312 327 338 342 357 2 350 318 299 285 292 325 16 10 353 23 60 58 4 342 333 328 332 342 338 310 352 25 359 348 351 357 358 4
271 266 273 285 291 288 287 301 316 324 332 345 4 331 276 214 196 247 270 301 303 280 310 346 322 303 311 323 317 320 324 323 332 333 305 299 320 332 331 331 339 354 1 2 4 7 11 16 11 358 2 7 349 323 324 334 340 346 345 347 5 11 359 358 13 22 9 7 46 75 82 349 340 336 334 338 338 311 357 12 348 331 336 346 352 357 6
268 261 263 272 280 279 280 294 310 311 305 324 25 294 266 218 206 248 281 298 288 272 299 313 301 289 296 299 289 287 292 292 306 324 319 326 347 332 317 295 312 350 357 5 8 8 7 9 9 348 339 359 1 334 327 339 345 345 345 357 11 0 348 10 21 9 359 6 26 65 105 10 344 339 341 351 349 337 1 345 317 325 338 337 343 1 7
264 257 255 263 271 271 272 284 296 291 283 280 134 238 279 237 213 232 280 299 289 286 288 282 272 280 290 281 274 281 282 276 297 325 326 338 345 335 330 359 3 349 359 7 5 9 5 355 357 350 334 347 348 331 337 349 6 1 344 345 3 351 340 18 27 2 351 16 26 37 59 352 345 344 354 15 10 348 333 324 319 336 344 335 344 7 7
259 251 249 256 261 260 264 272 278 278 269 247 207 265 285 248 219 227 268 288 291 292 295 287 283 289 284 269 263 267 265 270 293 316 319 322 332 340 351 349 338 346 4 356 350 4 0 344 344 338 319 317 322 332 337 342 17 15 347 331 5 1 350 23 28 3 2 24 20 359 321 325 345 357 5 7 2 351 340 340 344 350 349 346 356 10 13
250 244 243 247 250 251 254 258 265 268 250 230 229 251 268 268 257 261 282 284 270 266 278 292 294 284 274 266 259 252 250 259 272 282 293 305 316 322 319 323 338 2 5 342 340 349 346 338 332 324 320 321 329 338 347 3 18 7 354 346 7 6 360 3 11 3 26 39 4 341 332 345 4 12 0 353 2 5 359 1 8 4 354 354 7 21 29
242 237 237 239 242 246 247 246 253 257 234 217 219 235 268 290 289 294 297 288 275 273 274 278 281 274 264 257 248 241 243 251 255 256 260 275 301 309 299 318 344 356 355 2 353 333 333 334 314 310 326 333 330 337 1 25 19 345 339 329 341 6 6 348 321 1 158 33 360 354 2 17 17 9 358 358 6 9 6 9 15 7 354 4 23 33 37
236 232 232 233 234 240 245 241 244 250 234 215 212 233 270 284 291 309 310 293 290 299 281 253 258 282 280 270 253 245 245 245 245 244 239 240 263 296 321 0 356 325 333 2 347 317 321 322 303 311 328 326 340 350 1 25 15 339 337 348 5 15 12 2 13 24 22 357 359 350 352 19 20 10 4 4 5 10 13 12 5 353 353 13 31 38 40
231 227 227 227 228 235 239 235 238 245 233 213 213 242 272 280 287 309 317 298 293 313 311 282 270 277 298 301 290 270 254 243 237 232 224 221 229 251 291 341 340 310 316 329 322 309 317 313 305 328 327 327 3 8 355 17 10 349 5 17 0 357 3 357 3 17 28 26 2 346 333 19 23 14 8 5 2 6 11 8 359 3 19 36 42 44 44
227 223 222 221 224 228 228 228 237 244 229 211 217 242 256 272 285 287 288 292 285 266 277 297 301 299 313 308 300 278 249 236 231 228 226 224 227 241 266 284 289 294 302 307 306 305 310 309 305 328 345 355 6 358 348 354 336 340 21 18 340 328 353 350 345 12 38 26 3 355 349 11 14 9 5 3 1 4 8 8 10 17 27 42 51 52 50
224 220 217 217 220 222 221 228 237 235 219 205 218 246 256 271 282 271 256 281 297 276 274 296 315 326 320 311 295 261 247 246 246 243 237 233 232 237 250 264 276 291 299 299 294 277 275 311 335 348 353 345 336 333 325 308 318 9 27 9 347 350 3 353 357 34 40 13 0 2 2 355 357 359 0 1 1 1 5 11 15 17 20 33 52 59 56
221 218 214 213 218 219 220 228 226 212 198 193 217 258 265 264 267 254 228 232 275 298 297 293 295 305 309 302 275 267 268 263 262 259 249 240 233 229 233 245 255 269 287 294 294 275 279 322 355 3 350 321 329 21 26 301 359 34 22 359 355 5 359 348 359 33 34 10 360 3 5 353 350 358 3 2 356 354 1 11 15 16 20 31 48 59 62
217 213 210 210 214 216 218 222 215 198 190 199 244 266 257 238 243 243 207 196 229 283 299 290 283 293 311 310 293 290 289 279 271 268 259 245 231 220 220 229 238 252 272 278 280 284 295 318 326 327 331 315 334 26 37 28 40 38 12 352 351 358 356 350 352 5 19 11 354 351 3 8 3 2 4 360 352 353 0 9 13 18 28 40 49 58 63
213 207 205 208 211 213 216 215 205 191 184 217 255 247 222 189 187 194 172 170 220 294 311 304 293 313 330 312 293 300 318 320 302 284 266 244 227 215 212 213 216 230 244 249 265 290 312 319 302 306 69 298 316 16 34 29 48 38 5 351 348 352 356 359 356 348 338 329 323 336 8 14 5 5 9 4 359 359 356 360 16 24 31 44 55 60 61
209 202 201 203 205 209 211 204 196 189 184 214 246 257 262 106 135 166 157 150 270 304 304 288 281 292 303 279 265 305 325 327 319 305 273 224 208 197 194 195 197 207 225 243 258 280 311 322 329 42 73 357 342 38 41 30 37 21 356 348 348 348 347 351 359 1 349 331 327 347 23 20 10 14 16 4 357 0 358 0 21 26 23 37 58 63 60
202 198 199 200 201 205 202 196 194 192 200 227 244 268 310 133 183 195 179 166 300 308 311 303 290 288 305 295 266 309 317 313 304 295 216 176 172 167 176 191 199 199 224 270 261 254 320 322 335 42 51 354 356 62 55 40 35 14 347 338 339 336 331 339 357 13 17 4 357 9 23 19 11 16 18 5 354 2 8 12 25 29 26 38 59 65 60
195 194 195 195 196 197 193 193 198 201 221 245 258 269 250 231 228 227 213 224 299 299 310 314 302 293 313 316 329 344 330 318 308 321 96 138 152 187 178 182 190 189 203 253 278 276 331 301 319 69 63 23 24 65 58 41 34 24 8 3 356 337 328 346 8 16 15 6 6 12 7 356 354 7 19 20 12 12 18 23 29 31 32 40 52 60 61
191 190 190 189 191 189 181 186 201 219 241 254 262 259 228 229 228 213 188 178 282 273 245 303 300 301 305 293 194 39 354 337 343 1 16 69 351 290 195 172 186 197 196 226 286 282 202 256 3 83 75 45 39 60 55 39 32 27 25 27 23 10 5 15 20 15 2 356 4 10 357 351 360 11 23 29 25 18 20 26 30 32 33 34 36 43 54
186 185 183 180 177 172 169 181 206 231 244 240 215 187 196 204 201 192 182 181 261 280 270 303 294 306 316 311 31 34 356 334 332 345 345 1 332 322 290 194 199 179 160 233 267 264 98 1 337 45 75 54 49 55 43 28 27 26 26 27 23 17 17 18 14 10 7 8 12 12 11 14 17 19 26 33 30 24 25 28 29 31 33 31 28 30 39
180 177 174 168 158 154 172 203 214 219 223 202 175 176 172 139 132 161 180 204 265 290 320 322 289 301 321 329 356 357 338 330 342 348 328 302 297 311 281 252 224 100 118 242 254 59 48 349 330 51 70 62 56 50 25 11 17 21 22 22 21 20 22 18 8 6 29 33 23 17 17 19 20 22 30 33 31 31 33 32 29 29 30 28 25 23 23
174 168 160 151 144 155 196 212 211 214 206 159 136 134 128 115 116 136 172 214 241 254 273 284 284 306 324 323 323 330 332 339 353 1 356 344 340 315 291 297 345 80 215 224 58 44 19 350 77 78 72 69 64 44 18 3 5 8 7 10 15 20 23 19 9 4 22 39 32 22 16 16 21 28 33 33 31 33 36 35 33 30 27 24 22 21 20
165 159 151 145 150 182 208 201 195 193 177 150 134 129 129 139 158 164 183 215 227 228 242 258 267 278 284 293 315 347 351 334 332 358 16 2 342 307 277 334 14 303 225 116 69 18 307 102 92 92 93 90 71 35 14 1 359 2 357 1 10 13 18 23 18 11 18 35 36 25 16 17 23 26 27 28 30 30 30 32 34 35 33 26 20 21 26
158 151 148 162 183 195 155 152 158 160 155 153 175 214 196 193 217 211 182 200 220 206 206 228 251 258 266 290 320 34 21 314 318 357 14 4 8 357 328 15 22 287 232 140 66 331 241 140 115 117 109 87 44 17 4 355 357 4 359 355 0 3 13 25 25 21 29 41 33 15 10 15 20 20 18 19 24 26 24 22 25 32 38 36 26 23 28
157 148 145 168 171 116 127 141 145 149 157 176 206 232 223 215 220 209 185 206 210 192 187 218 265 260 260 290 313 33 90 318 330 352 353 355 33 341 309 327 23 292 244 141 38 333 290 135 128 129 86 36 10 2 354 347 353 1 357 355 357 357 12 28 27 24 34 46 33 10 10 15 19 19 16 14 17 18 16 16 20 25 31 37 35 30 28
164 161 159 161 146 132 130 138 148 174 213 215 211 221 223 212 195 201 237 226 204 164 168 210 248 210 193 232 275 293 68 12 337 320 320 348 46 298 300 336 1 276 259 77 28 317 279 109 90 43 13 0 354 351 346 345 350 353 355 359 355 344 358 24 25 19 21 26 22 17 19 20 20 20 19 19 19 15 12 15 22 24 24 29 35 33 29
169 161 146 139 137 134 134 147 177 208 213 212 234 234 222 204 195 207 225 234 214 127 162 202 262 322 143 198 251 272 340 40 307 275 297 357 14 300 301 316 276 255 319 31 337 272 184 107 90 21 358 349 347 350 349 345 345 347 352 359 351 328 333 0 11 14 17 16 10 11 17 19 19 20 20 20 20 20 17 17 21 25 25 25 27 28 28
151 142 131 126 130 139 169 195 195 203 203 203 218 218 204 205 217 214 199 199 216 190 172 190 241 273 188 199 240 250 199 210 285 282 305 346 346 301 289 296 293 331 3 327 259 225 115 104 94 27 1 347 349 355 351 340 338 343 347 348 342 325 316 329 350 5 15 18 8 0 0 7 15 18 18 17 17 19 20 20 19 22 27 30 30 27 23
135 132 124 121 137 177 206 186 166 191 216 209 207 212 201 192 199 201 180 165 177 180 165 186 249 260 209 145 230 240 200 203 234 256 310 331 318 283 286 315 345 352 308 253 219 119 102 123 98 23 6 356 357 355 345 339 344 346 341 338 337 330 315 314 341 359 7 15 14 1 350 352 11 20 22 19 15 12 14 19 19 15 18 27 31 26 19
135 133 131 133 144 177 207 184 170 205 224 211 205 218 222 202 189 187 164 133 149 175 161 172 253 274 332 85 214 263 290 248 230 262 334 326 301 289 317 339 335 301 268 237 176 138 138 144 90 12 1 357 356 352 345 341 345 345 340 336 336 334 326 321 339 352 358 5 9 6 1 4 16 27 31 26 16 12 16 25 25 16 15 20 20 16 16
127 130 140 146 172 206 207 186 181 205 224 215 207 217 234 238 183 122 100 101 206 214 149 138 260 272 294 40 191 240 281 288 289 327 335 300 290 321 350 320 300 290 287 286 235 161 130 56 11 352 348 346 347 348 347 338 334 339 342 340 335 329 318 305 334 351 359 6 6 9 18 24 26 29 32 29 25 27 34 40 36 24 21 22 19 12 15
107 119 132 138 159 190 206 211 213 219 222 213 215 220 240 323 339 57 110 212 254 279 6 178 242 268 316 332 276 251 239 292 302 339 348 298 300 329 311 277 280 295 293 300 340 43 28 6 352 343 341 340 337 339 342 338 331 331 333 334 333 330 316 280 312 347 358 12 5 1 12 29 34 28 27 29 34 39 43 42 35 26 22 24 22 17 17
133 140 165 175 167 185 202 209 218 228 218 202 211 202 72 320 257 227 179 175 243 246 221 211 225 235 211 214 264 287 319 294 267 300 6 306 294 303 280 265 256 263 289 320 11 15 341 331 336 335 334 334 333 333 338 340 335 329 325 326 331 332 319 289 304 355 8 24 4 349 358 17 24 16 10 15 30 43 42 30 23 22 23 25 26 23 24
116 137 187 194 192 209 208 202 233 228 209 191 194 198 212 239 242 210 141 155 205 216 207 224 276 275 251 208 267 275 281 297 287 289 283 264 268 293 298 277 259 263 339 6 19 358 319 320 333 334 334 336 337 338 340 339 336 333 327 323 323 324 317 296 279 3 32 36 14 0 13 20 12 359 347 352 14 41 42 19 18 26 29 29 29 29 31
101 160 205 201 190 178 156 157 222 216 203 197 201 201 212 227 220 160 136 182 191 173 169 201 239 255 258 273 272 265 261 1 320 282 268 260 239 238 262 264 263 302 8 18 17 2 355 354 346 341 344 347 345 343 343 341 339 338 330 321 318 318 314 298 273 241 72 39 13 5 14 10 1 356 344 340 358 27 27 7 13 29 37 36 37 39 40
159 212 222 220 199 170 157 174 215 220 211 202 194 189 206 220 193 134 106 189 193 189 199 212 219 231 244 255 269 270 224 144 276 277 279 278 240 240 252 252 220 90 11 25 35 24 13 9 0 352 353 352 346 343 343 343 343 341 334 325 322 321 313 294 260 229 215 354 0 4 14 5 352 341 327 322 340 26 34 6 358 15 31 40 44 45 47
178 194 190 155 187 206 212 231 245 239 219 192 169 162 191 207 151 96 84 220 214 209 208 205 218 244 257 267 288 283 224 228 252 266 264 235 217 241 264 270 143 106 357 13 47 44 29 27 21 2 352 348 344 343 346 349 351 348 339 331 328 326 320 302 259 234 239 289 10 32 43 1 320 311 319 333 359 45 60 50 327 335 15 38 49 49 49